Vorticity
13 19 26 15 16 15 12 12 9 11 15 26 10 33 16 1 31 26 -7 -1 11 4 -12 4 12 -6 5 13 17 75 14 10 -7 0 6 1 12 8 3 13 17 14 -9 24 15 3 19 17 8 -0 13 11 6 30
17 22 22 10 14 17 12 15 11 12 18 22 15 8 25 15 6 8 8 8 3 11 -5 6 27 27 24 3 22 36 -2 23 14 -5 -0 -5 4 19 4 2 10 15 -28 1 -11 18 -9 6 18 22 13 6 14 16
23 25 14 13 10 12 15 15 13 12 20 23 22 10 24 17 21 16 1 27 12 8 5 23 -0 21 10 6 39 13 30 22 -3 -4 16 10 6 26 7 7 30 -0 25 -20 1 31 3 -10 6 -15 6 3 8 13
31 23 14 13 14 13 17 14 13 10 25 22 22 16 25 11 -2 5 6 15 14 -3 11 7 16 16 4 35 10 11 12 24 -18 -16 12 12 -11 24 22 2 17 8 30 11 10 -6 21 9 -3 2 11 15 13 14
33 21 15 11 14 19 14 11 12 16 18 23 18 17 35 13 12 6 8 14 -4 -1 8 15 18 16 4 17 11 -2 11 26 24 27 -2 -2 13 10 6 6 7 -2 -1 14 9 49 10 53 24 14 -2 7 15 11
26 14 13 14 14 9 15 14 14 21 26 24 14 13 32 5 8 -0 2 14 4 -4 -8 10 24 10 8 9 8 44 19 24 28 -2 17 4 3 -18 8 21 15 5 -10 16 0 17 16 9 -18 -10 -3 16 15 10
21 17 16 16 16 17 14 12 23 21 31 24 18 29 29 3 -4 18 1 3 28 -4 4 5 9 28 9 9 2 29 5 27 13 15 39 39 36 33 22 17 32 29 24 3 3 19 15 14 13 19 20 14 11 9
13 12 14 15 20 20 20 27 18 20 29 20 15 33 4 6 14 15 8 7 24 -6 11 6 9 21 9 9 3 7 9 8 11 7 2 2 6 7 12 16 -2 -2 21 -2 20 12 9 10 20 16 12 12 12 9
9 10 17 23 25 24 19 11 19 27 29 23 17 30 8 -1 2 1 17 0 26 11 -12 11 0 14 36 8 8 11 7 6 9 6 6 3 11 13 4 7 18 22 7 7 16 12 14 10 10 12 13 11 7 10
9 3 16 31 22 11 14 22 29 32 35 21 25 19 -3 7 15 5 2 -3 39 -3 16 -9 19 -9 28 10 5 2 17 5 12 25 14 21 3 6 2 -1 3 14 17 12 6 12 12 2 7 13 14 10 11 9
10 3 5 35 19 17 20 28 37 27 25 26 30 -12 4 24 10 -5 3 15 10 23 36 -1 9 15 7 18 5 -0 13 8 10 16 4 14 22 -1 -5 -5 1 -1 3 7 11 2 2 -1 25 15 4 9 10 9
8 5 3 16 27 18 25 27 32 18 26 16 20 18 26 -2 -1 -2 14 16 18 2 28 27 -3 -2 23 11 2 24 7 13 8 12 7 17 28 21 7 7 8 9 7 6 12 7 11 16 6 9 12 14 10 9
12 6 7 5 31 16 29 22 37 22 21 -11 53 -56 29 -9 16 11 18 19 13 12 9 -3 13 11 26 -7 10 11 7 10 14 10 10 9 6 10 35 29 23 22 25 13 5 14 17 11 10 10 11 9 11 11
12 10 8 18 20 16 28 46 16 -1 38 6 -28 29 -7 20 17 -7 35 -0 -0 29 34 15 21 -7 -9 5 8 8 10 6 9 8 5 14 20 10 10 8 10 24 25 23 15 18 16 1 17 24 9 9 16 15
9 12 13 17 17 23 25 52 2 6 18 -14 5 13 8 4 19 24 7 35 7 -17 -1 30 25 -31 26 -7 23 7 12 12 10 10 15 17 13 13 13 13 15 20 25 10 9 -1 2 22 9 13 18 12 12 8
6 10 8 17 23 29 14 27 43 -13 13 -44 13 6 30 3 16 21 13 21 23 18 16 12 26 17 4 1 15 9 5 14 11 14 8 9 16 18 20 21 20 27 18 12 10 14 11 25 10 17 18 10 7 5
7 7 9 13 19 20 26 19 30 26 17 6 3 24 18 28 13 20 8 12 8 11 10 -31 13 2 14 11 10 12 2 2 9 -1 11 21 8 7 11 17 21 18 13 10 17 20 16 11 11 11 10 7 5 7
6 7 8 10 17 25 32 17 21 19 17 2 23 13 21 24 11 7 10 8 15 15 11 -11 -11 16 -6 5 10 22 14 -0 3 14 12 3 1 9 18 18 18 12 8 11 22 15 14 13 8 5 4 8 8 6
7 7 7 9 15 24 31 22 10 14 23 8 8 19 17 14 13 15 14 11 7 8 11 3 -5 30 -4 -0 2 -4 -3 7 12 18 4 10 8 14 18 19 14 8 10 13 16 11 7 4 2 3 8 7 5 6
9 7 7 9 18 26 26 15 12 10 20 16 16 5 23 17 11 14 6 3 7 6 8 8 -13 -19 10 11 5 14 17 12 15 5 23 7 14 16 17 21 11 16 16 12 5 2 7 6 10 10 5 4 5 7
11 7 7 9 28 26 21 13 11 9 26 16 20 16 1 26 24 21 12 12 8 5 5 9 12 2 -6 -7 8 25 35 30 27 31 7 8 17 19 20 6 12 16 12 13 14 3 10 9 6 4 4 6 8 8
11 10 8 17 21 27 22 14 11 13 13 9 12 22 23 10 16 22 12 14 13 13 8 5 -3 -3 14 10 15 0 -3 10 11 7 4 3 22 19 9 11 22 18 6 2 9 10 8 3 1 2 4 8 10 9
13 9 9 26 30 19 3 10 14 17 13 8 13 23 26 19 16 14 6 34 13 10 12 7 5 7 3 -1 6 13 1 -7 7 18 4 23 18 29 9 22 9 7 9 9 6 3 5 3 -2 5 10 10 10 9
11 10 24 16 6 5 15 13 17 13 17 12 20 13 14 28 17 21 21 4 16 14 13 14 12 10 8 8 24 31 21 29 22 23 23 19 16 20 10 7 7 5 6 9 8 4 -3 2 16 12 12 10 8 7
19 31 7 12 -1 13 22 12 11 14 14 13 11 16 7 20 18 16 16 21 13 16 21 14 12 17 17 23 22 18 15 12 17 20 21 16 26 13 8 3 5 4 5 -1 -2 -3 11 8 12 13 10 8 7 7
11 25 2 1 7 18 13 12 11 9 11 22 15 9 11 21 21 10 34 19 19 16 16 23 15 13 10 2 2 1 16 11 23 26 20 9 7 8 9 3 -4 -4 -4 -3 5 14 7 16 15 10 8 8 7 8
18 7 9 4 9 16 9 5 15 19 14 18 10 12 23 15 15 10 11 27 28 23 16 13 18 20 17 15 16 15 16 30 17 11 15 8 -2 -5 -1 10 9 1 -1 17 5 11 15 12 9 9 8 7 7 8
20 5 9 6 8 17 13 5 17 22 13 12 10 18 9 8 4 9 19 17 21 27 22 23 20 19 21 17 21 24 28 26 14 9 8 9 5 2 -7 4 7 18 12 7 14 14 10 9 8 8 8 8 8 9
21 15 5 6 9 13 17 6 6 8 12 16 16 17 8 7 5 8 16 15 15 19 25 20 20 23 20 20 22 24 25 16 13 7 7 12 9 8 8 4 11 9 12 13 11 10 8 7 8 9 9 9 9 10
16 9 9 9 9 9 14 9 7 5 10 21 17 20 18 20 21 14 13 24 19 20 23 21 21 23 18 17 18 15 16 17 17 24 26 21 16 6 8 16 17 15 11 9 8 8 8 9 10 9 10 11 12 13
11 18 16 12 6 13 9 11 11 7 8 14 18 20 31 27 29 25 23 25 24 22 19 17 18 14 14 15 16 15 14 12 9 8 9 13 18 22 20 14 11 9 8 8 10 10 8 8 9 10 12 13 14 14
-4 19 14 15 11 9 12 6 10 6 6 8 13 21 22 24 27 27 24 21 18 20 21 18 17 16 9 4 7 12 11 16 19 22 18 16 10 7 7 7 8 10 10 10 9 8 9 10 11 13 14 14 13 11
13 18 11 14 12 9 10 13 7 6 3 2 3 7 1 12 18 16 18 19 17 15 15 12 11 14 15 14 15 15 17 15 10 8 8 9 8 7 8 8 9 10 10 10 10 10 9 9 11 13 13 11 10 12
Height
2939 2930 2923 2919 2914 2909 2906 2902 2899 2897 2895 2894 2894 2896 2900 2905 2908 2911 2917 2922 2926 2928 2931 2933 2934 2934 2933 2934 2932 2932 2938 2941 2945 2948 2951 2951 2952 2954 2956 2957 2958 2961 2965 2966 2969 2969 2966 2963 2965 2967 2968 2967 2967 2967
2931 2924 2918 2913 2909 2905 2901 2898 2896 2893 2891 2891 2891 2894 2898 2903 2907 2912 2917 2921 2924 2927 2930 2930 2930 2930 2930 2931 2931 2932 2935 2939 2944 2946 2948 2950 2951 2951 2953 2955 2956 2959 2959 2960 2962 2960 2962 2963 2965 2966 2967 2968 2968 2968
2925 2918 2913 2908 2904 2900 2896 2893 2892 2889 2888 2887 2887 2890 2895 2900 2907 2911 2916 2919 2922 2925 2928 2928 2928 2928 2928 2928 2928 2930 2933 2937 2940 2943 2945 2946 2949 2950 2949 2951 2953 2954 2955 2957 2959 2958 2960 2962 2964 2966 2967 2967 2968 2967
2918 2912 2907 2903 2898 2894 2891 2888 2886 2885 2883 2883 2884 2888 2893 2899 2905 2909 2914 2918 2921 2924 2925 2927 2925 2925 2926 2926 2927 2929 2932 2935 2938 2941 2941 2944 2946 2947 2948 2949 2951 2953 2954 2954 2954 2955 2957 2959 2963 2965 2966 2966 2967 2967
2913 2907 2902 2898 2893 2889 2886 2884 2881 2879 2879 2879 2881 2886 2891 2898 2904 2909 2914 2917 2920 2925 2924 2924 2924 2925 2925 2925 2926 2928 2930 2931 2934 2938 2939 2943 2944 2947 2947 2948 2948 2950 2951 2952 2952 2953 2956 2957 2961 2963 2965 2965 2966 2967
2909 2903 2898 2893 2889 2885 2881 2878 2876 2874 2873 2874 2878 2884 2890 2896 2903 2908 2912 2914 2917 2921 2923 2923 2923 2924 2925 2925 2926 2925 2927 2929 2931 2934 2936 2939 2941 2945 2944 2943 2946 2947 2948 2949 2949 2952 2954 2956 2959 2961 2962 2964 2965 2967
2907 2901 2895 2889 2885 2880 2875 2872 2869 2868 2868 2871 2875 2881 2887 2895 2901 2906 2911 2914 2917 2920 2922 2924 2923 2922 2924 2925 2926 2926 2927 2928 2930 2931 2933 2935 2938 2939 2939 2940 2941 2941 2943 2946 2948 2950 2952 2954 2956 2957 2959 2962 2963 2965
2905 2899 2892 2885 2880 2874 2870 2866 2864 2864 2865 2869 2874 2880 2887 2894 2901 2905 2909 2913 2916 2920 2921 2922 2922 2922 2923 2924 2926 2927 2928 2929 2931 2932 2934 2935 2936 2937 2936 2938 2939 2940 2943 2945 2946 2948 2950 2952 2953 2955 2958 2960 2962 2965
2904 2897 2888 2881 2875 2870 2866 2863 2861 2861 2863 2867 2873 2880 2888 2894 2899 2905 2909 2913 2914 2920 2919 2919 2920 2921 2922 2924 2926 2928 2930 2932 2933 2933 2934 2935 2934 2933 2934 2935 2936 2938 2940 2943 2944 2946 2948 2950 2952 2955 2957 2959 2962 2964
2903 2896 2887 2879 2874 2868 2864 2860 2858 2858 2863 2868 2873 2880 2886 2892 2899 2906 2910 2912 2912 2913 2915 2916 2918 2920 2922 2923 2925 2929 2929 2931 2931 2932 2932 2931 2928 2930 2931 2933 2935 2936 2938 2940 2942 2945 2947 2949 2951 2953 2956 2958 2961 2963
2902 2895 2887 2879 2873 2868 2861 2858 2856 2859 2864 2869 2874 2881 2887 2894 2900 2904 2907 2906 2908 2909 2910 2912 2916 2918 2920 2922 2925 2928 2928 2929 2929 2929 2929 2925 2923 2925 2927 2929 2930 2933 2935 2937 2939 2941 2943 2946 2949 2952 2954 2956 2958 2961
2901 2894 2886 2880 2873 2868 2862 2860 2859 2862 2865 2871 2876 2882 2887 2893 2896 2900 2900 2901 2902 2905 2905 2908 2913 2916 2918 2920 2924 2926 2926 2926 2925 2926 2925 2918 2916 2919 2920 2923 2925 2927 2930 2933 2936 2938 2941 2944 2947 2949 2952 2954 2956 2959
2899 2893 2885 2880 2874 2869 2864 2863 2863 2865 2870 2873 2878 2880 2885 2888 2890 2890 2889 2892 2897 2900 2903 2906 2909 2914 2917 2919 2921 2923 2923 2924 2924 2922 2917 2912 2912 2913 2914 2916 2919 2921 2924 2928 2932 2935 2938 2941 2944 2947 2950 2952 2955 2957
2898 2892 2885 2879 2874 2869 2865 2864 2866 2868 2870 2874 2874 2878 2880 2881 2880 2880 2884 2890 2896 2900 2900 2903 2907 2911 2913 2917 2919 2919 2920 2920 2918 2915 2910 2909 2910 2912 2913 2914 2916 2917 2920 2924 2929 2933 2936 2939 2942 2944 2947 2950 2953 2955
2897 2891 2885 2879 2874 2870 2866 2867 2868 2870 2871 2871 2872 2872 2872 2873 2876 2880 2884 2888 2894 2896 2900 2902 2906 2910 2912 2915 2915 2916 2915 2914 2910 2907 2907 2908 2908 2909 2910 2911 2913 2914 2917 2922 2926 2930 2933 2936 2939 2942 2945 2948 2952 2955
2894 2891 2885 2878 2873 2869 2867 2865 2868 2869 2870 2870 2870 2870 2870 2874 2876 2880 2883 2887 2891 2894 2896 2900 2903 2907 2909 2910 2909 2909 2909 2906 2906 2905 2907 2907 2907 2907 2908 2909 2910 2912 2917 2921 2924 2927 2931 2934 2938 2941 2944 2948 2951 2954
2892 2886 2881 2877 2872 2867 2866 2865 2865 2867 2869 2868 2867 2867 2869 2871 2874 2879 2882 2886 2889 2891 2892 2895 2896 2899 2901 2902 2902 2902 2903 2904 2904 2905 2906 2906 2907 2907 2908 2908 2910 2912 2917 2920 2924 2926 2930 2934 2937 2941 2945 2948 2950 2952
2889 2885 2880 2875 2870 2866 2864 2863 2863 2863 2865 2866 2866 2866 2867 2868 2871 2874 2878 2881 2885 2887 2889 2891 2893 2893 2894 2895 2897 2899 2900 2902 2903 2904 2904 2905 2906 2907 2907 2909 2910 2913 2917 2920 2923 2926 2930 2935 2939 2942 2945 2947 2949 2951
2885 2881 2877 2873 2867 2864 2862 2862 2862 2861 2860 2862 2863 2863 2863 2865 2866 2870 2873 2875 2879 2883 2886 2887 2888 2887 2890 2893 2896 2897 2898 2899 2900 2901 2902 2903 2904 2905 2906 2908 2911 2914 2917 2920 2924 2928 2932 2936 2939 2942 2944 2946 2947 2948
2882 2878 2874 2871 2866 2862 2860 2860 2859 2858 2856 2856 2858 2859 2859 2860 2863 2865 2867 2870 2874 2877 2880 2879 2880 2884 2887 2889 2891 2892 2894 2895 2896 2897 2899 2901 2902 2902 2904 2908 2911 2913 2916 2919 2923 2928 2932 2936 2938 2940 2942 2943 2944 2945
2880 2876 2872 2869 2864 2860 2859 2857 2856 2855 2854 2853 2852 2853 2854 2855 2856 2858 2861 2864 2867 2868 2869 2871 2875 2879 2883 2885 2887 2888 2889 2890 2891 2894 2897 2898 2899 2901 2904 2907 2910 2913 2916 2920 2924 2928 2931 2934 2937 2939 2940 2941 2941 2941
2875 2872 2868 2864 2861 2858 2856 2855 2854 2853 2853 2851 2850 2849 2849 2850 2850 2852 2854 2856 2859 2862 2864 2867 2871 2874 2878 2881 2883 2886 2887 2888 2889 2891 2893 2895 2897 2898 2902 2906 2909 2913 2917 2921 2925 2928 2931 2933 2935 2937 2938 2938 2938 2938
2869 2868 2864 2862 2859 2857 2856 2853 2852 2850 2849 2848 2848 2846 2845 2845 2846 2847 2848 2850 2851 2854 2858 2862 2865 2869 2873 2875 2878 2880 2882 2884 2885 2887 2888 2891 2894 2898 2902 2905 2909 2914 2917 2920 2924 2926 2929 2931 2932 2933 2934 2934 2934 2934
2864 2863 2861 2859 2857 2856 2853 2851 2849 2848 2847 2846 2845 2844 2843 2842 2841 2841 2841 2842 2845 2848 2852 2855 2858 2862 2866 2869 2871 2873 2876 2877 2879 2882 2885 2888 2892 2895 2899 2904 2908 2912 2916 2919 2921 2924 2925 2928 2929 2930 2930 2930 2929 2929
2862 2860 2859 2855 2854 2853 2850 2848 2847 2846 2845 2843 2843 2842 2840 2839 2838 2837 2836 2838 2840 2842 2845 2849 2852 2856 2860 2862 2866 2868 2871 2873 2876 2878 2882 2885 2889 2892 2897 2903 2907 2910 2913 2915 2917 2920 2922 2924 2925 2925 2925 2926 2925 2925
2856 2855 2855 2852 2851 2850 2848 2847 2845 2844 2842 2841 2840 2839 2838 2837 2836 2834 2833 2834 2835 2838 2840 2843 2846 2850 2853 2857 2860 2863 2866 2869 2872 2876 2878 2882 2887 2895 2899 2902 2904 2906 2909 2912 2915 2917 2918 2919 2920 2920 2921 2921 2920 2920
2851 2850 2849 2849 2849 2848 2846 2845 2843 2842 2840 2839 2838 2837 2836 2834 2832 2831 2830 2830 2830 2832 2834 2837 2840 2844 2847 2850 2854 2858 2861 2864 2867 2872 2876 2880 2885 2889 2893 2897 2899 2902 2906 2909 2911 2912 2913 2914 2915 2916 2916 2916 2915 2915
2844 2844 2845 2846 2845 2844 2844 2843 2841 2839 2838 2838 2837 2835 2834 2832 2831 2829 2827 2827 2827 2828 2829 2831 2834 2838 2841 2844 2848 2852 2855 2859 2863 2868 2873 2877 2880 2885 2889 2893 2896 2900 2903 2905 2906 2907 2908 2909 2910 2911 2911 2910 2910 2909
2838 2840 2842 2842 2842 2841 2841 2841 2840 2838 2837 2836 2834 2833 2831 2830 2829 2828 2827 2825 2825 2826 2828 2830 2833 2835 2838 2842 2845 2848 2854 2859 2863 2866 2871 2875 2879 2883 2886 2889 2893 2896 2897 2899 2901 2903 2902 2904 2905 2905 2905 2905 2905 2903
2835 2836 2837 2838 2838 2838 2839 2838 2838 2837 2835 2833 2831 2829 2828 2826 2825 2825 2825 2824 2824 2825 2827 2830 2833 2836 2840 2843 2847 2851 2855 2859 2863 2868 2872 2875 2879 2882 2884 2886 2888 2891 2894 2896 2897 2897 2898 2898 2899 2900 2900 2899 2899 2898
2831 2832 2833 2834 2835 2835 2836 2836 2836 2835 2834 2832 2830 2827 2825 2823 2823 2823 2823 2823 2824 2825 2828 2830 2834 2837 2842 2845 2849 2853 2856 2859 2862 2866 2868 2871 2874 2877 2880 2883 2886 2888 2890 2891 2891 2892 2893 2894 2894 2894 2894 2893 2893 2892
2827 2828 2829 2830 2831 2833 2833 2834 2834 2834 2834 2832 2831 2829 2827 2825 2824 2824 2824 2825 2826 2828 2831 2833 2836 2839 2842 2846 2849 2853 2855 2858 2860 2863 2866 2868 2871 2875 2878 2880 2882 2884 2885 2886 2886 2888 2889 2889 2889 2889 2888 2888 2887 2887
2822 2824 2825 2826 2828 2829 2830 2832 2832 2832 2833 2833 2832 2832 2831 2830 2830 2830 2829 2830 2832 2833 2835 2837 2840 2842 2844 2847 2850 2852 2854 2856 2858 2861 2864 2868 2870 2872 2874 2877 2879 2880 2881 2882 2883 2884 2885 2885 2884 2884 2884 2883 2882 2881